STARLINK-37378, 69255

Orbit data source: Space-Track

STARLINK-37378, 69255 is a payload satellite owned by SpaceX/Seattle (US) in LEO that was launched on Sat, 30 May 2026 UTC via an FALCON 9 launch vehicle from the Air Force Eastern Test Range (AFETR). Payload-class satellites include a variety of spacecraft equipped with specific instruments for various scientific and technological missions. These include communications satellites like Starlink; space stations such as the ISS; scientific satellites like the Hubble; Earth observation satellites from companies like Planet Labs, Umbra, and HawkEye 360; GPS; miniature CubeSats for education and research; and military/defense satellites.

Not visible in the next 10 days
Identifier
69255, 2026-117T
Orbit
LEO
Country
Flag of USUS
Related business
Manufacturer
SpaceX/Seattle
Mission
Operational spacecraft
Bus & Motor
STARLINK V2MO, Unknown motor
Mass
575 kg wet, ~530 kg dry
Launch date (UTC)
2026-05-30 (2 weeks ago)
Launch vehicle
FALCON 9
Launch site
Air Force Eastern Test Range (AFETR)
Object type
Payload
Rocket body
Debris
Shape & HBR
Unknown
Radar Cross Section
RCS unknown

Expand to show TLE details & history
Last TLE update: 6 days ago

TLE from 6 days ago
0 STARLINK-37378
1 69255U 26117T   26155.25004630 -.01543188  78827-3 -20089-2 0  9991
2 69255  53.1583 308.6936 0000562  47.6633 355.2648 16.06437412  2088
Epoch: 2026-06-04T06:00Z
TLE epoch observation values (Epoch: 2026-06-04T06:00:04.000Z)
Latitude
33.13801°
Longitude
-4.91951°
Altitude
258.495 km
Speed
7.757 km/s
True Right ascension
22h 31m 10s
True Declination
32° 58' 08"
Sunlit
Object was in daylight at epoch
Visualization orbit readout
Latitude
Unknown
Longitude
Unknown
Altitude
Unknown
Speed
Unknown
Apparent Right ascension
Unknown
Apparent Declination
Unknown
Sunlit
N/A
Visualization observer readout
Local Sidereal Time
13:26:09
Azimuth
Unknown
Elevation
Unknown
Doppler factor
Unknown
Orbital elements
Apogee altitude
257.272 km
Perigee altitude
256.526 km
Semi-major axis
6,635.036 km
Eccentricity
0.00006
Inclination
53.1583°
RAAN
308.6936°
Arg. of periapsis
47.6633°
True anomaly
355.26427°
Mean anomaly
355.2648°
Eccentric anomaly
355.26453°
Mean motion
4.01586 °/min
Orbital period
89.64 mins
BSTAR
-0.0020089
Loading maneuver chart data...
Computing Atmospheric mass density...
Loading historical data...
Loading historical data...
Loading historical data...
Loading historical data...
Loading historical data...
Loading historical data...
Loading historical data...

Documentation

Showing up to 5 results
|